Apalachicola, FL

5:45 AM EDT on September 26, 2017 (GMT -0400)
Apalachicola Municipal

Weather History for KAAF - June, 2013

Change the Weather History Date:

Sunday, June 2, 2013

  Actual Average Record
Temperature  
Mean Temperature 80 °F 78 °F  
Max Temperature 87 °F 87 °F 93 °F (2000)
Min Temperature 72 °F 69 °F 54 °F (1984)
Degree Days  
Heating Degree Days 0    
Month to date heating degree days 0  
Since 1 June heating degree days 0  
Since 1 July heating degree days 1129  
Cooling Degree Days 15    
Month to date cooling degree days 31  
Year to date cooling degree days 412  
Since 1 June cooling degree days 31  
Growing Degree Days 30 (Base 50)    
Moisture  
Dew Point 72 °F    
Average Humidity 80    
Maximum Humidity 94    
Minimum Humidity 65    
Precipitation  
Precipitation 0.00 in 0.13 in 3.48 in (1938)
Month to date precipitation T 0.26  
Year to date precipitation 19.28 19.64  
Sea Level Pressure  
Sea Level Pressure 29.95 in    
Wind  
Wind Speed 5 mph (SSE)    
Max Wind Speed 13 mph    
Max Gust Speed 16 mph    
Visibility 10 miles    
Events      
T = Trace of Precipitation, MM = Missing Value Source: NWS Daily Summary

Daily Weather History Graph

Daily Weather History Graph

Search for Another Location

Airport or City:

Trip Planner

Search our weather history database for the weather conditions in past years. The results will help you decide how hot, cold, wet, or windy it might be!

Date:

Astronomy

Jun. 02, 2013 Rise Set
Actual Time 6:39 AM EDT 8:36 PM EDT
Civil Twilight 6:12 AM EDT 9:03 PM EDT
Nautical Twilight 5:40 AM EDT 9:36 PM EDT
Astronomical Twilight 5:05 AM EDT 10:11 PM EDT
Moon 2:43 AM EDT (6/2) 3:27 PM EDT (6/2)
Length of Visible Light 14h 50m
Length of Day
13h 56m
Waning Crescent, 31% of the Moon is Illuminated
Jun 2
Waning Crescent
Jun 8
New
Jun 16
First Quarter
Jun 23
Full
Jun 30
Last Quarter

Hourly Weather History & Observations

Time (EDT) Temp. Heat Index Dew Point Humidity Pressure Visibility Wind Dir Wind Speed Gust Speed Precip Events Conditions
12:53 AM 75.0 °F - 71.1 °F 87% 30.01 in 10.0 mi ENE 5.8 mph - N/A   Scattered Clouds
1:53 AM 75.9 °F - 73.0 °F 91% 29.99 in 10.0 mi Calm Calm - N/A   Mostly Cloudy
2:53 AM 75.0 °F - 71.1 °F 87% 29.96 in 10.0 mi Calm Calm - N/A   Clear
3:53 AM 73.9 °F - 70.0 °F 87% 29.95 in 10.0 mi Calm Calm - N/A   Clear
4:53 AM 73.0 °F - 70.0 °F 90% 29.94 in 10.0 mi NE 4.6 mph - N/A   Clear
5:32 AM 73.4 °F - 71.6 °F 94% 29.95 in 10.0 mi Calm Calm - N/A   Mostly Cloudy
5:53 AM 73.9 °F - 71.1 °F 91% 29.95 in 10.0 mi Calm Calm - N/A   Overcast
6:28 AM 77.0 °F - 71.6 °F 83% 29.95 in 10.0 mi SE 4.6 mph - N/A   Scattered Clouds
6:37 AM 77.0 °F - 71.6 °F 83% 29.95 in 10.0 mi ESE 4.6 mph - N/A   Mostly Cloudy
6:53 AM 77.0 °F - 72.0 °F 84% 29.96 in 10.0 mi SE 8.1 mph - N/A   Mostly Cloudy
7:53 AM 79.0 °F - 72.0 °F 79% 29.97 in 10.0 mi SSE 5.8 mph - N/A   Overcast
8:53 AM 80.1 °F 83.8 °F 72.0 °F 76% 29.98 in 10.0 mi Calm Calm - N/A   Overcast
9:16 AM 80.6 °F 84.6 °F 71.6 °F 74% 29.98 in 10.0 mi East 4.6 mph - N/A   Overcast
9:45 AM 80.6 °F 84.6 °F 71.6 °F 74% 29.98 in 10.0 mi Calm Calm - N/A   Overcast
9:53 AM 82.0 °F 86.3 °F 71.1 °F 69% 29.98 in 10.0 mi Calm Calm - N/A   Overcast
10:53 AM 84.0 °F 90.2 °F 73.0 °F 69% 29.98 in 10.0 mi East 6.9 mph - N/A   Partly Cloudy
11:37 AM 84.2 °F 90.9 °F 73.4 °F 70% 29.98 in 10.0 mi ESE 6.9 mph - N/A   Overcast
11:53 AM 84.0 °F 90.2 °F 73.0 °F 69% 29.98 in 10.0 mi ESE 3.5 mph - N/A   Overcast
12:53 PM 84.0 °F 90.2 °F 73.0 °F 69% 29.96 in 10.0 mi SSE 10.4 mph - N/A   Mostly Cloudy
1:42 PM 86.0 °F 91.8 °F 71.6 °F 62% 29.95 in 10.0 mi SSE 8.1 mph - N/A   Overcast
1:53 PM 86.0 °F 93.0 °F 73.0 °F 65% 29.96 in 10.0 mi South 9.2 mph - N/A   Overcast
2:06 PM 84.2 °F 90.9 °F 73.4 °F 70% 29.95 in 10.0 mi SSE 11.5 mph - N/A   Overcast
2:32 PM 84.2 °F 90.9 °F 73.4 °F 70% 29.95 in 10.0 mi South 11.5 mph - N/A   Mostly Cloudy
2:53 PM 84.9 °F 91.4 °F 73.0 °F 67% 29.95 in 10.0 mi South 11.5 mph - N/A   Mostly Cloudy
3:53 PM 86.0 °F 93.0 °F 73.0 °F 65% 29.93 in 10.0 mi SSW 9.2 mph - N/A   Partly Cloudy
4:53 PM 84.9 °F 91.4 °F 73.0 °F 67% 29.91 in 10.0 mi South 11.5 mph - N/A   Partly Cloudy
5:53 PM 82.9 °F 88.8 °F 73.0 °F 72% 29.90 in 10.0 mi South 9.2 mph - N/A   Scattered Clouds
6:53 PM 82.9 °F 88.0 °F 72.0 °F 69% 29.89 in 10.0 mi SSW 8.1 mph - N/A   Clear
7:53 PM 82.0 °F 86.7 °F 72.0 °F 71% 29.89 in 10.0 mi SSW 5.8 mph - N/A   Partly Cloudy
8:53 PM 80.1 °F 83.6 °F 71.1 °F 74% 29.90 in 10.0 mi SW 8.1 mph - N/A   Mostly Cloudy
9:11 PM 80.6 °F 84.6 °F 71.6 °F 74% 29.90 in 10.0 mi WSW 9.2 mph - N/A   Scattered Clouds
9:53 PM 80.1 °F 83.8 °F 72.0 °F 76% 29.92 in 10.0 mi SW 5.8 mph - N/A   Partly Cloudy
10:53 PM 78.1 °F - 72.0 °F 81% 29.95 in 10.0 mi WNW 3.5 mph - N/A   Scattered Clouds
11:27 PM 77.0 °F - 71.6 °F 83% 29.95 in 10.0 mi Calm Calm - N/A   Mostly Cloudy
11:38 PM 77.0 °F - 71.6 °F 83% 29.95 in 10.0 mi Calm Calm - N/A   Mostly Cloudy
11:53 PM 77.0 °F - 72.0 °F 84% 29.94 in 10.0 mi Calm Calm - N/A   Mostly Cloudy